Location: Deuil
(48.9767°N, 2.3272°E)
Time: 00:11:18
(UTC+00:00)

Cosmos 2228 - Pass Details

Date: 29 May 2022
Orbit: 586 x 617 km, 82.5° (Epoch: 03 July)

Event Time Altitude Azimuth Distance (km) Brightness Sun altitude
Rises 02:31:34 0° 344° (NNW) 2,891 7.0 -10.6°
Reaches altitude 10° 02:33:53 10° 338° (NNW) 1,977 6.1 -10.4°
Maximum altitude 02:38:01 43° 267° (W) 863 3.5 -9.9°
Enters shadow 02:42:01 10° 197° (SSW) 1,922 5.0 -9.5°
